Hourly Weather Rynkojeziory

Today, 15 August, Saturday

Time Temperature Precipitation Wind Pressure Humidity
00:00 +16°C° 0 mm 2 mps 748 mmHg 83%
01:00 +16°C° 0 mm 2 mps 748 mmHg 84%
02:00 +15°C° 0 mm 2 mps 749 mmHg 86%
03:00 +15°C° 0 mm 2 mps 748 mmHg 86%
04:00 +15°C° 0 mm 2 mps 748 mmHg 86%
05:00 +14°C° 0 mm 2 mps 748 mmHg 87%
06:00 +16°C° 0 mm 2 mps 749 mmHg 82%
07:00 +17°C° 0 mm 2 mps 749 mmHg 77%
08:00 +19°C° 0 mm 2 mps 749 mmHg 72%
09:00 +20°C° 0.1 mm 2 mps 749 mmHg 67%
10:00 +23°C° 0.1 mm 2 mps 749 mmHg 62%
11:00 +25°C° 0.1 mm 2 mps 749 mmHg 56%
12:00 +26°C° 0.2 mm 2 mps 749 mmHg 53%
13:00 +26°C° 0.2 mm 2 mps 749 mmHg 50%
14:00 +27°C° 0.2 mm 2 mps 749 mmHg 47%
15:00 +27°C° 0 mm 1 mps 749 mmHg 49%
16:00 +26°C° 0 mm 1 mps 749 mmHg 51%
17:00 +26°C° 0 mm 1 mps 749 mmHg 53%
18:00 +24°C° 0 mm 1 mps 748 mmHg 60%
19:00 +22°C° 0 mm 1 mps 748 mmHg 67%
20:00 +20°C° 0 mm 1 mps 748 mmHg 74%
21:00 +20°C° 0 mm 1 mps 749 mmHg 76%
22:00 +19°C° 0 mm 1 mps 749 mmHg 78%
23:00 +18°C° 0 mm 1 mps 749 mmHg 80%

Tomorrow, 16 August, Sunday

Time Temperature Precipitation Wind Pressure Humidity
00:00 +18°C° 0 mm 1 mps 749 mmHg 81%
01:00 +16°C° 0 mm 1 mps 749 mmHg 81%
02:00 +16°C° 0 mm 2 mps 749 mmHg 82%
03:00 +16°C° 0 mm 2 mps 749 mmHg 82%
04:00 +15°C° 0 mm 1 mps 749 mmHg 82%
05:00 +15°C° 0 mm 1 mps 749 mmHg 82%
06:00 +18°C° 0 mm 1 mps 749 mmHg 77%
07:00 +20°C° 0 mm 1 mps 749 mmHg 72%
08:00 +21°C° 0 mm 1 mps 749 mmHg 68%
09:00 +23°C° 0 mm 1 mps 750 mmHg 64%
10:00 +25°C° 0 mm 1 mps 750 mmHg 59%
11:00 +26°C° 0 mm 1 mps 750 mmHg 55%
12:00 +27°C° 0 mm 1 mps 750 mmHg 53%
13:00 +27°C° 0 mm 1 mps 750 mmHg 52%
14:00 +27°C° 0 mm 1 mps 749 mmHg 50%
15:00 +27°C° 0 mm 1 mps 749 mmHg 52%
16:00 +27°C° 0 mm 1 mps 749 mmHg 54%
17:00 +27°C° 0 mm 1 mps 749 mmHg 55%
18:00 +25°C° 0.1 mm 1 mps 748 mmHg 62%
19:00 +23°C° 0.1 mm 1 mps 748 mmHg 69%
20:00 +21°C° 0.1 mm 1 mps 748 mmHg 76%
21:00 +20°C° 0 mm 1 mps 748 mmHg 78%
22:00 +18°C° 0 mm 0 mps 748 mmHg 80%
23:00 +17°C° 0 mm 0 mps 749 mmHg 81%

Day after tomorrow, 17 August, Monday

Time Temperature Precipitation Wind Pressure Humidity
00:00 +19°C° 0 mm 1 mps 748 mmHg 83%
01:00 +18°C° 0 mm 1 mps 748 mmHg 84%
02:00 +18°C° 0 mm 1 mps 748 mmHg 86%
03:00 +18°C° 0 mm 1 mps 748 mmHg 86%
04:00 +16°C° 0 mm 1 mps 748 mmHg 87%
05:00 +16°C° 0 mm 1 mps 748 mmHg 87%
06:00 +19°C° 0 mm 1 mps 748 mmHg 81%
07:00 +20°C° 0 mm 1 mps 748 mmHg 75%
08:00 +20°C° 0 mm 0 mps 748 mmHg 70%
09:00 +23°C° 0 mm 1 mps 748 mmHg 64%
10:00 +25°C° 0 mm 1 mps 748 mmHg 59%
11:00 +26°C° 0 mm 1 mps 747 mmHg 54%
12:00 +27°C° 0 mm 2 mps 747 mmHg 52%
13:00 +27°C° 0 mm 2 mps 747 mmHg 50%
14:00 +27°C° 0 mm 2 mps 746 mmHg 48%
15:00 +27°C° 0 mm 2 mps 746 mmHg 52%
16:00 +26°C° 0 mm 2 mps 746 mmHg 55%
17:00 +26°C° 0 mm 2 mps 745 mmHg 58%
18:00 +25°C° 0 mm 2 mps 745 mmHg 61%
19:00 +23°C° 0 mm 1 mps 745 mmHg 64%
20:00 +22°C° 0 mm 1 mps 745 mmHg 67%
21:00 +21°C° 0 mm 1 mps 745 mmHg 68%
22:00 +21°C° 0 mm 1 mps 744 mmHg 70%
23:00 +20°C° 0 mm 1 mps 744 mmHg 72%

18 August, Tuesday

Time Temperature Precipitation Wind Pressure Humidity
00:00 +18°C° 0 mm 2 mps 744 mmHg 74%
01:00 +18°C° 0 mm 2 mps 744 mmHg 76%
02:00 +18°C° 0 mm 3 mps 743 mmHg 78%
03:00 +17°C° 0 mm 3 mps 743 mmHg 81%
04:00 +17°C° 0 mm 3 mps 743 mmHg 83%
05:00 +17°C° 0 mm 3 mps 743 mmHg 86%
06:00 +18°C° 0 mm 3 mps 742 mmHg 82%
07:00 +19°C° 0 mm 3 mps 742 mmHg 78%
08:00 +20°C° 0 mm 3 mps 742 mmHg 74%
09:00 +21°C° 0 mm 3 mps 742 mmHg 70%
10:00 +24°C° 0 mm 3 mps 742 mmHg 66%
11:00 +25°C° 0 mm 3 mps 742 mmHg 63%
12:00 +26°C° 0 mm 3 mps 741 mmHg 60%
13:00 +27°C° 0 mm 3 mps 741 mmHg 58%
14:00 +28°C° 0 mm 2 mps 740 mmHg 56%
15:00 +27°C° 0.4 mm 2 mps 740 mmHg 60%
16:00 +27°C° 0.4 mm 2 mps 740 mmHg 64%
17:00 +26°C° 0.4 mm 2 mps 740 mmHg 68%
18:00 +25°C° 0.5 mm 2 mps 740 mmHg 75%
19:00 +23°C° 0.5 mm 2 mps 740 mmHg 81%
20:00 +20°C° 0.5 mm 2 mps 740 mmHg 88%
21:00 +20°C° 0.3 mm 2 mps 739 mmHg 90%
22:00 +20°C° 0.3 mm 1 mps 739 mmHg 92%
23:00 +20°C° 0.3 mm 1 mps 739 mmHg 94%

19 August, Wednesday

Time Temperature Precipitation Wind Pressure Humidity
00:00 +20°C° 0.1 mm 1 mps 739 mmHg 94%
01:00 +19°C° 0.1 mm 1 mps 739 mmHg 94%
02:00 +19°C° 0.1 mm 1 mps 739 mmHg 95%
03:00 +19°C° 0.1 mm 1 mps 739 mmHg 95%
04:00 +19°C° 0.1 mm 1 mps 738 mmHg 95%
05:00 +19°C° 0.1 mm 1 mps 738 mmHg 96%
06:00 +18°C° 0.4 mm 2 mps 738 mmHg 93%
07:00 +19°C° 0.4 mm 2 mps 738 mmHg 91%
08:00 +20°C° 0.4 mm 2 mps 738 mmHg 89%
09:00 +21°C° 0 mm 2 mps 739 mmHg 82%
10:00 +22°C° 0 mm 3 mps 739 mmHg 76%
11:00 +24°C° 0 mm 3 mps 739 mmHg 69%
12:00 +25°C° 0.3 mm 3 mps 739 mmHg 69%
13:00 +25°C° 0.3 mm 2 mps 738 mmHg 70%
14:00 +25°C° 0.3 mm 2 mps 738 mmHg 70%
15:00 +25°C° 0.9 mm 2 mps 738 mmHg 72%
16:00 +25°C° 0.9 mm 2 mps 738 mmHg 74%
17:00 +24°C° 0.9 mm 2 mps 738 mmHg 75%
18:00 +23°C° 0.4 mm 1 mps 738 mmHg 81%
19:00 +22°C° 0.4 mm 1 mps 738 mmHg 86%
20:00 +20°C° 0.4 mm 1 mps 738 mmHg 91%
21:00 +20°C° 0.3 mm 1 mps 738 mmHg 92%
22:00 +19°C° 0.3 mm 1 mps 738 mmHg 93%
23:00 +19°C° 0.3 mm 1 mps 738 mmHg 94%

20 August, Thursday

Time Temperature Precipitation Wind Pressure Humidity
00:00 +18°C° 0.1 mm 2 mps 738 mmHg 95%
01:00 +17°C° 0.1 mm 2 mps 739 mmHg 96%
02:00 +17°C° 0.1 mm 2 mps 739 mmHg 97%
03:00 +16°C° 0 mm 3 mps 739 mmHg 96%
04:00 +16°C° 0 mm 3 mps 739 mmHg 96%
05:00 +16°C° 0 mm 3 mps 739 mmHg 95%
06:00 +16°C° 0 mm 3 mps 739 mmHg 92%
07:00 +17°C° 0 mm 3 mps 740 mmHg 89%
08:00 +18°C° 0 mm 4 mps 740 mmHg 86%
09:00 +19°C° 0.2 mm 3 mps 741 mmHg 82%
10:00 +20°C° 0.2 mm 3 mps 741 mmHg 78%
11:00 +22°C° 0.2 mm 3 mps 741 mmHg 74%
12:00 +22°C° 0.8 mm 3 mps 741 mmHg 71%
13:00 +24°C° 0.8 mm 3 mps 741 mmHg 68%
14:00 +23°C° 0.8 mm 4 mps 741 mmHg 66%
15:00 +24°C° 0.3 mm 3 mps 741 mmHg 67%
16:00 +24°C° 0.3 mm 3 mps 742 mmHg 68%
17:00 +24°C° 0.3 mm 3 mps 742 mmHg 70%
18:00 +21°C° 0.1 mm 3 mps 742 mmHg 76%
19:00 +20°C° 0.1 mm 3 mps 742 mmHg 83%
20:00 +18°C° 0.1 mm 3 mps 743 mmHg 90%
21:00 +17°C° 0.1 mm 3 mps 743 mmHg 92%
22:00 +16°C° 0.1 mm 3 mps 743 mmHg 94%
23:00 +16°C° 0.1 mm 2 mps 744 mmHg 96%
Show more